#datetime,building,power
2023-09-06T00:00:00,axn,34.48
2023-09-06T00:01:00,axn,44.49
2023-09-06T00:02:00,axn,42.53
2023-09-06T00:03:00,axn,42.90
2023-09-06T00:04:00,axn,42.64
2023-09-06T00:05:00,axn,32.91
2023-09-06T00:06:00,axn,33.24
2023-09-06T00:07:00,axn,29.04
2023-09-06T00:08:00,axn,28.73
2023-09-06T00:09:00,axn,28.64
2023-09-06T00:10:00,axn,28.68
2023-09-06T00:11:00,axn,28.72
2023-09-06T00:12:00,axn,28.90
2023-09-06T00:13:00,axn,28.64
2023-09-06T00:14:00,axn,28.63
2023-09-06T00:15:00,axn,28.70
2023-09-06T00:16:00,axn,28.54
2023-09-06T00:17:00,axn,28.79
2023-09-06T00:18:00,axn,28.77
2023-09-06T00:19:00,axn,31.77
2023-09-06T00:20:00,axn,29.25
2023-09-06T00:21:00,axn,28.94
2023-09-06T00:22:00,axn,29.07
2023-09-06T00:23:00,axn,28.87
2023-09-06T00:24:00,axn,28.66
2023-09-06T00:25:00,axn,28.87
2023-09-06T00:26:00,axn,29.46
2023-09-06T00:27:00,axn,29.24
2023-09-06T00:28:00,axn,29.38
2023-09-06T00:29:00,axn,29.42
2023-09-06T00:30:00,axn,29.40
2023-09-06T00:31:00,axn,29.51
2023-09-06T00:32:00,axn,29.43
2023-09-06T00:33:00,axn,29.06
2023-09-06T00:34:00,axn,29.45
2023-09-06T00:35:00,axn,29.09
2023-09-06T00:36:00,axn,28.92
2023-09-06T00:37:00,axn,29.65
2023-09-06T00:38:00,axn,29.14
2023-09-06T00:39:00,axn,28.93
2023-09-06T00:40:00,axn,28.99
2023-09-06T00:41:00,axn,28.98
2023-09-06T00:42:00,axn,29.45
2023-09-06T00:43:00,axn,28.77
2023-09-06T00:44:00,axn,29.17
2023-09-06T00:45:00,axn,29.11
2023-09-06T00:46:00,axn,29.27
2023-09-06T00:47:00,axn,29.29
2023-09-06T00:48:00,axn,29.14
2023-09-06T00:49:00,axn,29.26
2023-09-06T00:50:00,axn,29.28
2023-09-06T00:51:00,axn,29.80
2023-09-06T00:52:00,axn,29.37
2023-09-06T00:53:00,axn,29.39
2023-09-06T00:54:00,axn,29.71
2023-09-06T00:55:00,axn,29.67
2023-09-06T00:56:00,axn,29.66
2023-09-06T00:57:00,axn,29.54
2023-09-06T00:58:00,axn,29.70
2023-09-06T00:59:00,axn,30.14
2023-09-06T01:00:00,axn,30.02
2023-09-06T01:01:00,axn,29.63
2023-09-06T01:02:00,axn,29.75
2023-09-06T01:03:00,axn,29.71
2023-09-06T01:04:00,axn,29.68
2023-09-06T01:05:00,axn,29.56
2023-09-06T01:06:00,axn,29.81
2023-09-06T01:07:00,axn,29.85
2023-09-06T01:08:00,axn,29.86
2023-09-06T01:09:00,axn,29.78
2023-09-06T01:10:00,axn,29.96
2023-09-06T01:11:00,axn,30.15
2023-09-06T01:12:00,axn,30.21
2023-09-06T01:13:00,axn,30.40
2023-09-06T01:14:00,axn,30.24
2023-09-06T01:15:00,axn,30.73
2023-09-06T01:16:00,axn,30.63
2023-09-06T01:17:00,axn,30.91
2023-09-06T01:18:00,axn,30.25
2023-09-06T01:19:00,axn,29.88
2023-09-06T01:20:00,axn,29.75
2023-09-06T01:21:00,axn,29.50
2023-09-06T01:22:00,axn,29.39
2023-09-06T01:23:00,axn,29.43
2023-09-06T01:24:00,axn,30.12
2023-09-06T01:25:00,axn,29.95
2023-09-06T01:26:00,axn,29.78
2023-09-06T01:27:00,axn,29.66
2023-09-06T01:28:00,axn,29.70
2023-09-06T01:29:00,axn,29.16
2023-09-06T01:30:00,axn,29.11
2023-09-06T01:31:00,axn,29.52
2023-09-06T01:32:00,axn,29.46
2023-09-06T01:33:00,axn,29.53
2023-09-06T01:34:00,axn,29.53
2023-09-06T01:35:00,axn,29.98
2023-09-06T01:36:00,axn,29.86
2023-09-06T01:37:00,axn,29.96
2023-09-06T01:38:00,axn,29.95
2023-09-06T01:39:00,axn,29.82
2023-09-06T01:40:00,axn,30.01
2023-09-06T01:41:00,axn,30.19
2023-09-06T01:42:00,axn,30.29
2023-09-06T01:43:00,axn,29.85
2023-09-06T01:44:00,axn,29.92
2023-09-06T01:45:00,axn,29.98
2023-09-06T01:46:00,axn,29.83
2023-09-06T01:47:00,axn,29.72
2023-09-06T01:48:00,axn,29.75
2023-09-06T01:49:00,axn,29.77
2023-09-06T01:50:00,axn,29.72
2023-09-06T01:51:00,axn,29.48
2023-09-06T01:52:00,axn,29.66
2023-09-06T01:53:00,axn,29.24
2023-09-06T01:54:00,axn,29.34
2023-09-06T01:55:00,axn,29.34
2023-09-06T01:56:00,axn,29.57
2023-09-06T01:57:00,axn,29.43
2023-09-06T01:58:00,axn,29.52
2023-09-06T01:59:00,axn,29.27
2023-09-06T02:00:00,axn,29.41
2023-09-06T02:01:00,axn,29.19
2023-09-06T02:02:00,axn,29.10
2023-09-06T02:03:00,axn,29.23
2023-09-06T02:04:00,axn,29.24
2023-09-06T02:05:00,axn,29.24
2023-09-06T02:06:00,axn,29.23
2023-09-06T02:07:00,axn,29.31
2023-09-06T02:08:00,axn,29.31
2023-09-06T02:09:00,axn,29.34
2023-09-06T02:10:00,axn,29.69
2023-09-06T02:11:00,axn,29.45
2023-09-06T02:12:00,axn,29.59
2023-09-06T02:13:00,axn,29.23
2023-09-06T02:14:00,axn,29.18
2023-09-06T02:15:00,axn,29.61
2023-09-06T02:16:00,axn,29.50
2023-09-06T02:17:00,axn,29.65
2023-09-06T02:18:00,axn,29.76
2023-09-06T02:19:00,axn,29.57
2023-09-06T02:20:00,axn,29.70
2023-09-06T02:21:00,axn,29.58
2023-09-06T02:22:00,axn,29.66
2023-09-06T02:23:00,axn,29.63
2023-09-06T02:24:00,axn,29.52
2023-09-06T02:25:00,axn,29.64
2023-09-06T02:26:00,axn,31.66
2023-09-06T02:27:00,axn,31.47
2023-09-06T02:28:00,axn,29.22
2023-09-06T02:29:00,axn,29.00
2023-09-06T02:30:00,axn,29.21
2023-09-06T02:31:00,axn,29.12
2023-09-06T02:32:00,axn,29.13
2023-09-06T02:33:00,axn,29.30
2023-09-06T02:34:00,axn,29.59
2023-09-06T02:35:00,axn,29.02
2023-09-06T02:36:00,axn,29.51
2023-09-06T02:37:00,axn,29.12
2023-09-06T02:38:00,axn,29.11
2023-09-06T02:39:00,axn,28.86
2023-09-06T02:40:00,axn,29.04
2023-09-06T02:41:00,axn,29.08
2023-09-06T02:42:00,axn,29.11
2023-09-06T02:43:00,axn,34.97
2023-09-06T02:44:00,axn,35.19
2023-09-06T02:45:00,axn,35.14
2023-09-06T02:46:00,axn,29.14
2023-09-06T02:47:00,axn,29.30
2023-09-06T02:48:00,axn,31.92
2023-09-06T02:49:00,axn,31.88
2023-09-06T02:50:00,axn,31.97
2023-09-06T02:51:00,axn,29.15
2023-09-06T02:52:00,axn,29.19
2023-09-06T02:53:00,axn,29.09
2023-09-06T02:54:00,axn,28.88
2023-09-06T02:55:00,axn,28.90
2023-09-06T02:56:00,axn,28.99
2023-09-06T02:57:00,axn,28.91
2023-09-06T02:58:00,axn,28.97
2023-09-06T02:59:00,axn,28.99
2023-09-06T03:00:00,axn,28.93
2023-09-06T03:01:00,axn,29.29
2023-09-06T03:02:00,axn,29.72
2023-09-06T03:03:00,axn,28.98
2023-09-06T03:04:00,axn,29.03
2023-09-06T03:05:00,axn,29.13
2023-09-06T03:06:00,axn,29.01
2023-09-06T03:07:00,axn,28.97
2023-09-06T03:08:00,axn,29.02
2023-09-06T03:09:00,axn,28.98
2023-09-06T03:10:00,axn,29.21
2023-09-06T03:11:00,axn,29.22
2023-09-06T03:12:00,axn,29.44
2023-09-06T03:13:00,axn,32.09
2023-09-06T03:14:00,axn,32.58
2023-09-06T03:15:00,axn,29.17
2023-09-06T03:16:00,axn,29.33
2023-09-06T03:17:00,axn,29.32
2023-09-06T03:18:00,axn,29.28
2023-09-06T03:19:00,axn,29.22
2023-09-06T03:20:00,axn,33.88
2023-09-06T03:21:00,axn,33.89
2023-09-06T03:22:00,axn,29.29
2023-09-06T03:23:00,axn,29.38
2023-09-06T03:24:00,axn,29.47
2023-09-06T03:25:00,axn,29.83
2023-09-06T03:26:00,axn,29.90
2023-09-06T03:27:00,axn,29.84
2023-09-06T03:28:00,axn,29.78
2023-09-06T03:29:00,axn,29.62
2023-09-06T03:30:00,axn,29.81
2023-09-06T03:31:00,axn,29.98
2023-09-06T03:32:00,axn,29.74
2023-09-06T03:33:00,axn,29.73
2023-09-06T03:34:00,axn,29.74
2023-09-06T03:35:00,axn,29.69
2023-09-06T03:36:00,axn,29.72
2023-09-06T03:37:00,axn,29.55
2023-09-06T03:38:00,axn,29.74
2023-09-06T03:39:00,axn,29.53
2023-09-06T03:40:00,axn,29.51
2023-09-06T03:41:00,axn,29.70
2023-09-06T03:42:00,axn,30.15
2023-09-06T03:43:00,axn,29.59
2023-09-06T03:44:00,axn,29.60
2023-09-06T03:45:00,axn,29.53
2023-09-06T03:46:00,axn,29.34
2023-09-06T03:47:00,axn,29.41
2023-09-06T03:48:00,axn,29.28
2023-09-06T03:49:00,axn,29.39
2023-09-06T03:50:00,axn,29.46
2023-09-06T03:51:00,axn,29.49
2023-09-06T03:52:00,axn,29.61
2023-09-06T03:53:00,axn,29.59
2023-09-06T03:54:00,axn,29.38
2023-09-06T03:55:00,axn,29.51
2023-09-06T03:56:00,axn,29.48
2023-09-06T03:57:00,axn,29.49
2023-09-06T03:58:00,axn,29.93
2023-09-06T03:59:00,axn,29.62
2023-09-06T04:00:00,axn,29.68
2023-09-06T04:01:00,axn,29.72
2023-09-06T04:02:00,axn,29.64
2023-09-06T04:03:00,axn,30.02
2023-09-06T04:04:00,axn,29.94
2023-09-06T04:05:00,axn,29.29
2023-09-06T04:06:00,axn,29.51
2023-09-06T04:07:00,axn,29.63
2023-09-06T04:08:00,axn,29.60
2023-09-06T04:09:00,axn,29.54
2023-09-06T04:10:00,axn,29.89
2023-09-06T04:11:00,axn,29.68
2023-09-06T04:12:00,axn,29.54
2023-09-06T04:13:00,axn,29.45
2023-09-06T04:14:00,axn,29.44
2023-09-06T04:15:00,axn,29.39
2023-09-06T04:16:00,axn,29.40
2023-09-06T04:17:00,axn,29.49
2023-09-06T04:18:00,axn,29.35
2023-09-06T04:19:00,axn,29.23
2023-09-06T04:20:00,axn,29.14
2023-09-06T04:21:00,axn,29.01
2023-09-06T04:22:00,axn,29.04
2023-09-06T04:23:00,axn,28.89
2023-09-06T04:24:00,axn,29.36
2023-09-06T04:25:00,axn,28.89
2023-09-06T04:26:00,axn,29.02
2023-09-06T04:27:00,axn,29.19
2023-09-06T04:28:00,axn,29.13
2023-09-06T04:29:00,axn,29.10
2023-09-06T04:30:00,axn,29.11
2023-09-06T04:31:00,axn,29.11
2023-09-06T04:32:00,axn,29.35
2023-09-06T04:33:00,axn,31.09
2023-09-06T04:34:00,axn,30.92
2023-09-06T04:35:00,axn,31.17
2023-09-06T04:36:00,axn,31.07
2023-09-06T04:37:00,axn,30.96
2023-09-06T04:38:00,axn,31.62
2023-09-06T04:39:00,axn,31.47
2023-09-06T04:40:00,axn,31.45
2023-09-06T04:41:00,axn,31.45
2023-09-06T04:42:00,axn,46.73
2023-09-06T04:43:00,axn,46.46
2023-09-06T04:44:00,axn,46.30
2023-09-06T04:45:00,axn,46.38
2023-09-06T04:46:00,axn,46.68
2023-09-06T04:47:00,axn,32.32
2023-09-06T04:48:00,axn,33.05
2023-09-06T04:49:00,axn,32.99
2023-09-06T04:50:00,axn,32.45
2023-09-06T04:51:00,axn,32.46
2023-09-06T04:52:00,axn,32.55
2023-09-06T04:53:00,axn,32.39
2023-09-06T04:54:00,axn,32.36
2023-09-06T04:55:00,axn,32.80
2023-09-06T04:56:00,axn,49.62
2023-09-06T04:57:00,axn,32.34
2023-09-06T04:58:00,axn,32.26
2023-09-06T04:59:00,axn,32.18
2023-09-06T05:00:00,axn,32.27
2023-09-06T05:01:00,axn,29.56
2023-09-06T05:02:00,axn,30.02
2023-09-06T05:03:00,axn,30.32
2023-09-06T05:04:00,axn,29.91
2023-09-06T05:05:00,axn,29.80
2023-09-06T05:06:00,axn,29.75
2023-09-06T05:07:00,axn,29.52
2023-09-06T05:08:00,axn,29.44
2023-09-06T05:09:00,axn,29.97
2023-09-06T05:10:00,axn,30.02
2023-09-06T05:11:00,axn,30.18
2023-09-06T05:12:00,axn,30.00
2023-09-06T05:13:00,axn,29.63
2023-09-06T05:14:00,axn,29.53
2023-09-06T05:15:00,axn,29.51
2023-09-06T05:16:00,axn,29.67
2023-09-06T05:17:00,axn,29.50
2023-09-06T05:18:00,axn,29.64
2023-09-06T05:19:00,axn,29.45
2023-09-06T05:20:00,axn,29.74
2023-09-06T05:21:00,axn,29.76
2023-09-06T05:22:00,axn,30.05
2023-09-06T05:23:00,axn,29.88
2023-09-06T05:24:00,axn,30.18
2023-09-06T05:25:00,axn,29.81
2023-09-06T05:26:00,axn,29.62
2023-09-06T05:27:00,axn,29.69
2023-09-06T05:28:00,axn,31.16
2023-09-06T05:29:00,axn,30.68
2023-09-06T05:30:00,axn,30.74
2023-09-06T05:31:00,axn,33.20
2023-09-06T05:32:00,axn,32.07
2023-09-06T05:33:00,axn,31.98
2023-09-06T05:34:00,axn,32.07
2023-09-06T05:35:00,axn,32.25
2023-09-06T05:36:00,axn,33.50
2023-09-06T05:37:00,axn,33.11
2023-09-06T05:38:00,axn,33.22
2023-09-06T05:39:00,axn,33.23
2023-09-06T05:40:00,axn,33.17
2023-09-06T05:41:00,axn,33.36
2023-09-06T05:42:00,axn,33.16
2023-09-06T05:43:00,axn,32.75
2023-09-06T05:44:00,axn,48.54
2023-09-06T05:45:00,axn,31.32
2023-09-06T05:46:00,axn,32.53
2023-09-06T05:47:00,axn,33.34
2023-09-06T05:48:00,axn,32.00
2023-09-06T05:49:00,axn,31.99
2023-09-06T05:50:00,axn,33.18
2023-09-06T05:51:00,axn,33.13
2023-09-06T05:52:00,axn,31.84
2023-09-06T05:53:00,axn,31.95
2023-09-06T05:54:00,axn,31.91
2023-09-06T05:55:00,axn,31.85
2023-09-06T05:56:00,axn,31.88
2023-09-06T05:57:00,axn,31.79
2023-09-06T05:58:00,axn,31.67
2023-09-06T05:59:00,axn,31.88
2023-09-06T06:00:00,axn,31.98
2023-09-06T06:01:00,axn,32.00
2023-09-06T06:02:00,axn,31.87
2023-09-06T06:03:00,axn,31.15
2023-09-06T06:04:00,axn,31.31
2023-09-06T06:05:00,axn,30.58
2023-09-06T06:06:00,axn,30.63
2023-09-06T06:07:00,axn,30.23
2023-09-06T06:08:00,axn,30.23
2023-09-06T06:09:00,axn,30.23
2023-09-06T06:10:00,axn,30.15
2023-09-06T06:11:00,axn,30.50
2023-09-06T06:12:00,axn,30.16
2023-09-06T06:13:00,axn,30.08
2023-09-06T06:14:00,axn,30.28
2023-09-06T06:15:00,axn,30.20
2023-09-06T06:16:00,axn,30.06
2023-09-06T06:17:00,axn,30.40
2023-09-06T06:18:00,axn,30.88
2023-09-06T06:19:00,axn,30.41
2023-09-06T06:20:00,axn,30.53
2023-09-06T06:21:00,axn,31.43
2023-09-06T06:22:00,axn,30.22
2023-09-06T06:23:00,axn,31.36
2023-09-06T06:24:00,axn,31.57
2023-09-06T06:25:00,axn,31.47
2023-09-06T06:26:00,axn,30.46
2023-09-06T06:27:00,axn,30.21
2023-09-06T06:28:00,axn,29.92
2023-09-06T06:29:00,axn,29.82
2023-09-06T06:30:00,axn,29.96
2023-09-06T06:31:00,axn,29.83
2023-09-06T06:32:00,axn,32.47
2023-09-06T06:33:00,axn,33.58
2023-09-06T06:34:00,axn,33.68
2023-09-06T06:35:00,axn,35.56
2023-09-06T06:36:00,axn,35.48
2023-09-06T06:37:00,axn,35.36
2023-09-06T06:38:00,axn,35.16
2023-09-06T06:39:00,axn,35.39
2023-09-06T06:40:00,axn,35.50
2023-09-06T06:41:00,axn,35.23
2023-09-06T06:42:00,axn,35.31
2023-09-06T06:43:00,axn,35.72
2023-09-06T06:44:00,axn,35.64
2023-09-06T06:45:00,axn,35.63
2023-09-06T06:46:00,axn,29.77
2023-09-06T06:47:00,axn,29.71
2023-09-06T06:48:00,axn,29.92
2023-09-06T06:49:00,axn,29.94
2023-09-06T06:50:00,axn,29.78
2023-09-06T06:51:00,axn,29.98
2023-09-06T06:52:00,axn,29.42
2023-09-06T06:53:00,axn,28.91
2023-09-06T06:54:00,axn,32.18
2023-09-06T06:55:00,axn,32.08
2023-09-06T06:56:00,axn,31.91
2023-09-06T06:57:00,axn,31.47
2023-09-06T06:58:00,axn,29.21
2023-09-06T06:59:00,axn,31.98
2023-09-06T07:00:00,axn,33.42
2023-09-06T07:01:00,axn,33.86
2023-09-06T07:02:00,axn,37.36
2023-09-06T07:03:00,axn,45.23
2023-09-06T07:04:00,axn,43.93
2023-09-06T07:05:00,axn,43.33
2023-09-06T07:06:00,axn,45.96
2023-09-06T07:07:00,axn,45.67
2023-09-06T07:08:00,axn,45.36
2023-09-06T07:09:00,axn,45.58
2023-09-06T07:10:00,axn,44.17
2023-09-06T07:11:00,axn,38.20
2023-09-06T07:12:00,axn,40.49
2023-09-06T07:13:00,axn,39.21
2023-09-06T07:14:00,axn,37.65
2023-09-06T07:15:00,axn,37.89
2023-09-06T07:16:00,axn,37.78
2023-09-06T07:17:00,axn,37.51
2023-09-06T07:18:00,axn,37.84
2023-09-06T07:19:00,axn,36.44
2023-09-06T07:20:00,axn,42.04
2023-09-06T07:21:00,axn,43.36
2023-09-06T07:22:00,axn,43.10
2023-09-06T07:23:00,axn,44.19
2023-09-06T07:24:00,axn,44.03
2023-09-06T07:25:00,axn,44.04
2023-09-06T07:26:00,axn,44.60
2023-09-06T07:27:00,axn,44.68
2023-09-06T07:28:00,axn,44.33
2023-09-06T07:29:00,axn,44.48
2023-09-06T07:30:00,axn,38.19
2023-09-06T07:31:00,axn,39.25
2023-09-06T07:32:00,axn,39.33
2023-09-06T07:33:00,axn,39.07
2023-09-06T07:34:00,axn,38.81
2023-09-06T07:35:00,axn,38.75
2023-09-06T07:36:00,axn,37.82
2023-09-06T07:37:00,axn,41.34
2023-09-06T07:38:00,axn,41.19
2023-09-06T07:39:00,axn,41.37
2023-09-06T07:40:00,axn,41.46
2023-09-06T07:41:00,axn,41.72
2023-09-06T07:42:00,axn,41.32
2023-09-06T07:43:00,axn,41.44
2023-09-06T07:44:00,axn,41.27
2023-09-06T07:45:00,axn,41.78
2023-09-06T07:46:00,axn,41.22
2023-09-06T07:47:00,axn,41.20
2023-09-06T07:48:00,axn,41.11
2023-09-06T07:49:00,axn,41.07
2023-09-06T07:50:00,axn,41.36
2023-09-06T07:51:00,axn,41.41
2023-09-06T07:52:00,axn,41.44
2023-09-06T07:53:00,axn,41.51
2023-09-06T07:54:00,axn,41.53
2023-09-06T07:55:00,axn,41.63
2023-09-06T07:56:00,axn,41.81
2023-09-06T07:57:00,axn,41.85
2023-09-06T07:58:00,axn,41.62
2023-09-06T07:59:00,axn,41.29
2023-09-06T08:00:00,axn,41.20
2023-09-06T08:01:00,axn,40.83
2023-09-06T08:02:00,axn,41.52
2023-09-06T08:03:00,axn,41.75
2023-09-06T08:04:00,axn,41.54
2023-09-06T08:05:00,axn,41.62
2023-09-06T08:06:00,axn,41.67
2023-09-06T08:07:00,axn,41.47
2023-09-06T08:08:00,axn,41.90
2023-09-06T08:09:00,axn,42.03
2023-09-06T08:10:00,axn,41.97
2023-09-06T08:11:00,axn,41.88
2023-09-06T08:12:00,axn,41.94
2023-09-06T08:13:00,axn,41.83
2023-09-06T08:14:00,axn,42.13
2023-09-06T08:15:00,axn,41.84
2023-09-06T08:16:00,axn,41.86
2023-09-06T08:17:00,axn,41.74
2023-09-06T08:18:00,axn,41.95
2023-09-06T08:19:00,axn,42.37
2023-09-06T08:20:00,axn,42.05
2023-09-06T08:21:00,axn,42.49
2023-09-06T08:22:00,axn,42.13
2023-09-06T08:23:00,axn,42.46
2023-09-06T08:24:00,axn,42.50
2023-09-06T08:25:00,axn,41.91
2023-09-06T08:26:00,axn,42.32
2023-09-06T08:27:00,axn,42.33
2023-09-06T08:28:00,axn,41.99
2023-09-06T08:29:00,axn,42.37
2023-09-06T08:30:00,axn,41.91
2023-09-06T08:31:00,axn,41.91
2023-09-06T08:32:00,axn,42.20
2023-09-06T08:33:00,axn,42.30
2023-09-06T08:34:00,axn,42.13
2023-09-06T08:35:00,axn,42.15
2023-09-06T08:36:00,axn,41.98
2023-09-06T08:37:00,axn,41.81
2023-09-06T08:38:00,axn,42.15
2023-09-06T08:39:00,axn,42.20
2023-09-06T08:40:00,axn,42.56
2023-09-06T08:41:00,axn,42.16
2023-09-06T08:42:00,axn,42.30
2023-09-06T08:43:00,axn,42.51
2023-09-06T08:44:00,axn,42.02
2023-09-06T08:45:00,axn,42.92
2023-09-06T08:46:00,axn,42.78
2023-09-06T08:47:00,axn,42.94
2023-09-06T08:48:00,axn,42.56
2023-09-06T08:49:00,axn,42.47
2023-09-06T08:50:00,axn,42.26
2023-09-06T08:51:00,axn,42.52
2023-09-06T08:52:00,axn,41.74
2023-09-06T08:53:00,axn,42.48
2023-09-06T08:54:00,axn,42.75
2023-09-06T08:55:00,axn,42.68
2023-09-06T08:56:00,axn,42.77
2023-09-06T08:57:00,axn,46.90
2023-09-06T08:58:00,axn,42.33
2023-09-06T08:59:00,axn,42.43
2023-09-06T09:00:00,axn,42.59
2023-09-06T09:01:00,axn,42.37
2023-09-06T09:02:00,axn,43.03
2023-09-06T09:03:00,axn,43.63
2023-09-06T09:04:00,axn,54.17
2023-09-06T09:05:00,axn,53.72
2023-09-06T09:06:00,axn,54.39
2023-09-06T09:07:00,axn,54.16
2023-09-06T09:08:00,axn,45.64
2023-09-06T09:09:00,axn,46.68
2023-09-06T09:10:00,axn,46.75
2023-09-06T09:11:00,axn,46.14
2023-09-06T09:12:00,axn,46.58
2023-09-06T09:13:00,axn,46.34
2023-09-06T09:14:00,axn,45.48
2023-09-06T09:15:00,axn,45.45
2023-09-06T09:16:00,axn,45.86
2023-09-06T09:17:00,axn,45.95
2023-09-06T09:18:00,axn,59.38
2023-09-06T09:19:00,axn,54.97
2023-09-06T09:20:00,axn,59.39
2023-09-06T09:21:00,axn,58.78
2023-09-06T09:22:00,axn,58.30
2023-09-06T09:23:00,axn,58.19
2023-09-06T09:24:00,axn,50.22
2023-09-06T09:25:00,axn,49.95
2023-09-06T09:26:00,axn,49.87
2023-09-06T09:27:00,axn,49.70
2023-09-06T09:28:00,axn,50.48
2023-09-06T09:29:00,axn,50.21
2023-09-06T09:30:00,axn,50.65
2023-09-06T09:31:00,axn,44.95
2023-09-06T09:32:00,axn,45.83
2023-09-06T09:33:00,axn,45.72
2023-09-06T09:34:00,axn,45.94
2023-09-06T09:35:00,axn,45.74
2023-09-06T09:36:00,axn,46.01
2023-09-06T09:37:00,axn,46.16
2023-09-06T09:38:00,axn,45.97
2023-09-06T09:39:00,axn,45.67
2023-09-06T09:40:00,axn,46.22
2023-09-06T09:41:00,axn,45.78
2023-09-06T09:42:00,axn,46.87
2023-09-06T09:43:00,axn,47.20
2023-09-06T09:44:00,axn,46.18
2023-09-06T09:45:00,axn,47.61
2023-09-06T09:46:00,axn,45.93
2023-09-06T09:47:00,axn,46.62
2023-09-06T09:48:00,axn,46.87
2023-09-06T09:49:00,axn,46.46
2023-09-06T09:50:00,axn,45.32
2023-09-06T09:51:00,axn,44.98
2023-09-06T09:52:00,axn,45.05
2023-09-06T09:53:00,axn,45.67
2023-09-06T09:54:00,axn,45.10
2023-09-06T09:55:00,axn,46.43
2023-09-06T09:56:00,axn,45.98
2023-09-06T09:57:00,axn,47.08
2023-09-06T09:58:00,axn,45.61
2023-09-06T09:59:00,axn,47.03
2023-09-06T10:00:00,axn,44.73
2023-09-06T10:01:00,axn,51.84
2023-09-06T10:02:00,axn,53.69
2023-09-06T10:03:00,axn,52.52
2023-09-06T10:04:00,axn,54.45
2023-09-06T10:05:00,axn,52.58
2023-09-06T10:06:00,axn,52.74
2023-09-06T10:07:00,axn,54.27
2023-09-06T10:08:00,axn,48.96
2023-09-06T10:09:00,axn,48.95
2023-09-06T10:10:00,axn,48.78
2023-09-06T10:11:00,axn,46.57
2023-09-06T10:12:00,axn,46.32
2023-09-06T10:13:00,axn,47.88
2023-09-06T10:14:00,axn,48.23
2023-09-06T10:15:00,axn,46.01
2023-09-06T10:16:00,axn,45.24
2023-09-06T10:17:00,axn,45.39
2023-09-06T10:18:00,axn,45.19
2023-09-06T10:19:00,axn,45.95
2023-09-06T10:20:00,axn,45.67
2023-09-06T10:21:00,axn,55.28
2023-09-06T10:22:00,axn,49.77
2023-09-06T10:23:00,axn,52.95
2023-09-06T10:24:00,axn,65.10
2023-09-06T10:25:00,axn,48.79
2023-09-06T10:26:00,axn,45.84
2023-09-06T10:27:00,axn,45.89
2023-09-06T10:28:00,axn,45.85
2023-09-06T10:29:00,axn,46.86
2023-09-06T10:30:00,axn,46.35
2023-09-06T10:31:00,axn,46.37
2023-09-06T10:32:00,axn,46.90
2023-09-06T10:33:00,axn,46.31
2023-09-06T10:34:00,axn,46.35
2023-09-06T10:35:00,axn,46.08
2023-09-06T10:36:00,axn,46.07
2023-09-06T10:37:00,axn,45.67
2023-09-06T10:38:00,axn,45.89
2023-09-06T10:39:00,axn,46.69
2023-09-06T10:40:00,axn,46.02
2023-09-06T10:41:00,axn,45.88
2023-09-06T10:42:00,axn,45.94
2023-09-06T10:43:00,axn,46.01
2023-09-06T10:44:00,axn,46.26
2023-09-06T10:45:00,axn,45.94
2023-09-06T10:46:00,axn,45.73
2023-09-06T10:47:00,axn,45.55
2023-09-06T10:48:00,axn,45.63
2023-09-06T10:49:00,axn,45.48
2023-09-06T10:50:00,axn,45.55
2023-09-06T10:51:00,axn,45.89
2023-09-06T10:52:00,axn,46.06
2023-09-06T10:53:00,axn,46.44
2023-09-06T10:54:00,axn,46.11
2023-09-06T10:55:00,axn,45.72
2023-09-06T10:56:00,axn,47.91
2023-09-06T10:57:00,axn,48.16
2023-09-06T10:58:00,axn,48.19
2023-09-06T10:59:00,axn,48.17
2023-09-06T11:00:00,axn,47.66
2023-09-06T11:01:00,axn,47.97
2023-09-06T11:02:00,axn,50.40
2023-09-06T11:03:00,axn,50.40
2023-09-06T11:04:00,axn,49.55
2023-09-06T11:05:00,axn,48.34
2023-09-06T11:06:00,axn,48.41
2023-09-06T11:07:00,axn,48.12
2023-09-06T11:08:00,axn,48.33
2023-09-06T11:09:00,axn,50.07
2023-09-06T11:10:00,axn,47.52
2023-09-06T11:11:00,axn,48.36
2023-09-06T11:12:00,axn,48.08
2023-09-06T11:13:00,axn,47.43
2023-09-06T11:14:00,axn,46.35
2023-09-06T11:15:00,axn,46.63
2023-09-06T11:16:00,axn,46.55
2023-09-06T11:17:00,axn,46.28
2023-09-06T11:18:00,axn,46.40
2023-09-06T11:19:00,axn,47.12
2023-09-06T11:20:00,axn,46.15
2023-09-06T11:21:00,axn,45.94
2023-09-06T11:22:00,axn,45.96
2023-09-06T11:23:00,axn,45.80
2023-09-06T11:24:00,axn,45.60
2023-09-06T11:25:00,axn,45.47
2023-09-06T11:26:00,axn,46.01
2023-09-06T11:27:00,axn,46.95
2023-09-06T11:28:00,axn,46.92
2023-09-06T11:29:00,axn,46.16
2023-09-06T11:30:00,axn,46.63
2023-09-06T11:31:00,axn,46.92
2023-09-06T11:32:00,axn,63.40
2023-09-06T11:33:00,axn,46.48
2023-09-06T11:34:00,axn,46.43
2023-09-06T11:35:00,axn,46.30
2023-09-06T11:36:00,axn,46.22
2023-09-06T11:37:00,axn,46.19
2023-09-06T11:38:00,axn,47.23
2023-09-06T11:39:00,axn,47.14
2023-09-06T11:40:00,axn,47.33
2023-09-06T11:41:00,axn,47.54
2023-09-06T11:42:00,axn,47.07
2023-09-06T11:43:00,axn,46.68
2023-09-06T11:44:00,axn,46.39
2023-09-06T11:45:00,axn,46.20
2023-09-06T11:46:00,axn,46.33
2023-09-06T11:47:00,axn,45.68
2023-09-06T11:48:00,axn,46.09
2023-09-06T11:49:00,axn,45.90
2023-09-06T11:50:00,axn,45.86
2023-09-06T11:51:00,axn,46.27
2023-09-06T11:52:00,axn,46.65
2023-09-06T11:53:00,axn,46.34
2023-09-06T11:54:00,axn,46.04
2023-09-06T11:55:00,axn,45.99
2023-09-06T11:56:00,axn,46.13
2023-09-06T11:57:00,axn,46.57
2023-09-06T11:58:00,axn,46.40
2023-09-06T11:59:00,axn,46.40
2023-09-06T12:00:00,axn,46.11
2023-09-06T12:01:00,axn,46.06
2023-09-06T12:02:00,axn,46.61
2023-09-06T12:03:00,axn,47.16
2023-09-06T12:04:00,axn,46.59
2023-09-06T12:05:00,axn,46.29
2023-09-06T12:06:00,axn,47.29
2023-09-06T12:07:00,axn,47.28
2023-09-06T12:08:00,axn,46.57
2023-09-06T12:09:00,axn,46.87
2023-09-06T12:10:00,axn,46.94
2023-09-06T12:11:00,axn,46.46
2023-09-06T12:12:00,axn,46.54
2023-09-06T12:13:00,axn,46.41
2023-09-06T12:14:00,axn,46.91
2023-09-06T12:15:00,axn,46.78
2023-09-06T12:16:00,axn,46.85
2023-09-06T12:17:00,axn,46.45
2023-09-06T12:18:00,axn,46.97
2023-09-06T12:19:00,axn,47.54
2023-09-06T12:20:00,axn,46.74
2023-09-06T12:21:00,axn,46.68
2023-09-06T12:22:00,axn,46.44
2023-09-06T12:23:00,axn,46.55
2023-09-06T12:24:00,axn,54.30
2023-09-06T12:25:00,axn,54.59
2023-09-06T12:26:00,axn,54.53
2023-09-06T12:27:00,axn,55.07
2023-09-06T12:28:00,axn,56.43
2023-09-06T12:29:00,axn,62.13
2023-09-06T12:30:00,axn,62.39
2023-09-06T12:31:00,axn,63.26
2023-09-06T12:32:00,axn,56.65
2023-09-06T12:33:00,axn,57.40
2023-09-06T12:34:00,axn,56.36
2023-09-06T12:35:00,axn,56.39
2023-09-06T12:36:00,axn,56.11
2023-09-06T12:37:00,axn,56.03
2023-09-06T12:38:00,axn,56.08
2023-09-06T12:39:00,axn,56.22
2023-09-06T12:40:00,axn,56.35
2023-09-06T12:41:00,axn,56.35
2023-09-06T12:42:00,axn,56.47
2023-09-06T12:43:00,axn,56.30
2023-09-06T12:44:00,axn,56.11
2023-09-06T12:45:00,axn,56.04
2023-09-06T12:46:00,axn,55.81
2023-09-06T12:47:00,axn,55.67
2023-09-06T12:48:00,axn,55.95
2023-09-06T12:49:00,axn,55.85
2023-09-06T12:50:00,axn,56.83
2023-09-06T12:51:00,axn,55.99
2023-09-06T12:52:00,axn,56.36
2023-09-06T12:53:00,axn,55.86
2023-09-06T12:54:00,axn,56.30
2023-09-06T12:55:00,axn,55.64
2023-09-06T12:56:00,axn,55.34
2023-09-06T12:57:00,axn,56.19
2023-09-06T12:58:00,axn,56.20
2023-09-06T12:59:00,axn,56.16
2023-09-06T13:00:00,axn,70.51
2023-09-06T13:01:00,axn,70.14
2023-09-06T13:02:00,axn,70.09
2023-09-06T13:03:00,axn,69.86
2023-09-06T13:04:00,axn,55.92
2023-09-06T13:05:00,axn,69.80
2023-09-06T13:06:00,axn,69.39
2023-09-06T13:07:00,axn,55.44
2023-09-06T13:08:00,axn,56.02
2023-09-06T13:09:00,axn,55.62
2023-09-06T13:10:00,axn,71.92
2023-09-06T13:11:00,axn,55.81
2023-09-06T13:12:00,axn,55.95
2023-09-06T13:13:00,axn,55.85
2023-09-06T13:14:00,axn,56.11
2023-09-06T13:15:00,axn,56.09
2023-09-06T13:16:00,axn,55.48
2023-09-06T13:17:00,axn,55.72
2023-09-06T13:18:00,axn,55.73